Location: Cactus School
(34.5700°N, 118.0931°W)
Time: 01:20:32
(UTC-08:00)

N. Korean satellite - Visible Passes

Search period start: 25 February 2018 00:00
Search period end: 07 March 2018 00:00
Orbit: 459 x 514 km, 97.2° (Epoch: 24 February)

Date Brightness Start Highest point End Pass type
(mag) Time Alt. Az. Time Alt. Az. Time Alt. Az.
25 Feb 10.4 18:55:34 10° WSW 18:56:35 11° W 18:57:35 10° WNW visible
26 Feb 9.3 18:29:52 10° SSW 18:32:40 23° W 18:35:32 10° NW visible
28 Feb 10.1 05:36:48 10° NE 05:39:11 16° E 05:41:34 10° SE visible
01 Mar 10.3 18:53:43 10° WSW 18:55:00 12° W 18:56:16 10° WNW visible
02 Mar 9.3 18:28:12 10° SSW 18:31:05 24° W 18:34:01 10° NW visible
04 Mar 10.2 05:35:18 10° NE 05:37:37 16° E 05:39:55 10° SE visible
05 Mar 10.2 18:51:51 10° WSW 18:53:22 12° W 18:54:53 10° WNW visible
06 Mar 9.2 18:26:29 10° SSW 18:29:26 25° W 18:32:28 10° NW visible
